Find OneWeb SL0205

NORAD ID: 48226 Int'l Des: 2021-031 Owner: ONEWEBN Country: UK Constellation: oneweb operational
LEOCIRCULARPOLARONEWEB_TYPE

Live Position

Loading 3D Globe...

About OneWeb SL0205

Description loading...

Upcoming Passes

Passes for default location (London). Set your location on the main map for personalized predictions.

Altitude History

Loading altitude history...

Two-Line Element Set

1 48226U 21031S 26125.43567082 -.00000161 00000-0 -46798-3 0 9997
2 48226 87.8932 298.2245 0001579 98.0755 262.0554 13.14503527242653
Epoch: May 5, 2026 • Age: 11 hours

Current Status

Altitude 1232.1 km
Velocity 7.24 km/s
Sub-Earth Point -66.02°S, 113.44°E
Launch Date Apr 25, 2021
Age 5 years
Type internet

Technical Details

Classification Payload
Mass 148.00 kg
Dry Mass 140.00 kg
Total Mass 148.00 kg
Length 1.30 m
Diameter 1.00 m
Span 5.00 m
Shape Trapezoid+2 pan
Manufacturer ONEWUS
Bus Type ARROW
Phase Status In Orbit
Owner/State ONEWEBN/UK

Most Searched